[[{"header":{"parameterUnit":"m.s-1","parameterCategory":1,"la1":30.2991,"la2":30.254,"lo1":-89.0895,"lo2":-89.0444,"dy":0.0017,"dx":0.0017,"nx":28,"ny":28,"refTime":"2024-05-14T21:00:00:Z","depth":0,"parameterNumber":2,"parameterNumberName":"U-component_of_WINDS"},"data":[0,0,0,0,0,0,0,0,0,0,0,0,0,0,0,0,0,0,0,0,0,0,0,0,0,0,0,0,0,0,0,0,0,0,0,0,0,0,0,0,0,0,0,0,0,0,0,0,0,0,0,0,0,0,0,0,0,0,1.1061,1.1062,0,1.1117,1.1117,1.1118,1.1095,1.1094,1.1093,1.1091,1.1155,1.1158,1.116,0,0,0,0,0,0,0,0,0,0,0,0,0,1.0944,1.0946,1.1061,1.1062,1.1063,1.1117,1.1118,1.1118,1.1096,1.1094,1.1092,1.1091,1.1154,1.1157,1.1161,0,0,0,0,0,0,0,0,0,0,0,0,0,1.0997,1.0947,1.1061,1.1058,1.1058,1.1117,1.1118,1.1119,1.1096,1.1094,1.1092,1.109,1.1153,1.1157,1.1161,1.1228,0,0,1.1175,1.1177,0,0,0,0,0,0,0,0,1.0994,1.1001,1.1058,1.1058,1.1058,1.1097,1.1099,1.1156,1.1096,1.1082,1.1091,1.1089,1.1138,1.1143,1.1158,1.1231,1.1234,1.1175,1.1178,1.118,1.1181,0,0,0,0,0,0,0,1.099,1.0999,1.1083,1.1059,1.1059,1.1056,1.1061,1.111,1.1121,1.1083,1.1081,1.1088,1.1137,1.1154,1.1159,1.1235,1.1175,1.1179,1.1182,1.1183,1.1371,1.1373,0,0,0,0,0,0,1.0985,1.0996,1.1082,1.1085,1.102,1.106,1.1066,1.1087,1.112,1.1123,1.109,1.1087,1.1147,1.1154,1.1162,1.1245,1.118,1.1184,1.1186,1.1368,1.1371,1.1374,0,0,0,0,0,0,1.0983,1.0993,1.1079,1.104,1.1051,1.1064,1.1088,1.1089,1.1105,1.1125,1.1127,1.1104,1.1146,1.1155,1.1212,1.1247,1.1186,1.119,1.1366,1.1369,1.1372,1.1411,0,0,0,0,0,0,1.098,1.0992,1.1016,1.1041,1.1053,1.1127,1.109,1.1091,1.1112,1.1109,1.1139,1.1142,1.1145,1.1206,1.1217,1.1252,1.1193,1.1363,1.1367,1.1371,1.1407,1.1416,1.1423,0,0,0,0,0,1.0975,1.1025,1.1017,1.1028,1.1082,1.1129,1.1136,1.1137,1.1115,1.114,1.1153,1.1141,1.1241,1.1212,1.1224,1.1261,1.136,1.1366,1.1371,1.1403,1.1414,1.1423,0,0,0,0,0,0,1.1006,1.1028,1.102,1.1078,1.1102,1.1125,1.1157,1.1148,1.1179,1.1175,1.1177,1.1184,1.1244,1.1258,1.1225,1.133,1.1298,1.1306,1.1318,1.1329,1.1336,1.1333,1.1197,0,0,0,0,0,1.1019,1.1053,1.1072,1.1122,1.1134,1.1143,1.1164,1.1162,1.1188,1.1198,1.1215,1.1242,1.128,1.1305,1.134,1.1409,1.1417,1.144,1.1448,1.1455,1.1462,1.1503,1.1515,1.1391,1.1391,1.1391,0,0,1.1048,1.1064,1.1085,1.1128,1.1146,1.1184,1.1152,1.1192,1.1222,1.1205,1.126,1.1274,1.1304,1.1368,1.1397,1.1382,1.1498,1.1462,1.1467,1.1471,1.151,1.1522,1.1532,1.1395,1.1394,1.1393,0,0,1.1119,1.1133,1.1178,1.1197,1.1224,1.123,1.1241,1.1266,1.1275,1.1329,1.1319,1.1355,1.1418,1.1442,1.1462,1.1545,1.1536,1.1557,1.1599,1.1639,1.1649,1.1658,1.169,1.1702,1.1564,1.1564,1.1564,0,1.1151,1.1205,1.1203,1.1245,1.1266,1.1251,1.1299,1.1317,1.1356,1.1372,1.1354,1.1436,1.1455,1.1526,1.1546,1.1562,1.1578,1.1554,1.1647,1.1656,1.1664,1.1696,1.1708,1.1566,1.1566,1.1566,1.1565,0,1.1245,1.1283,1.1317,1.1353,1.1378,1.1422,1.143,1.1455,1.1453,1.1462,1.1521,1.1543,1.1585,1.1601,1.1599,1.1673,1.1663,1.1646,1.1614,1.1679,1.1708,1.172,1.157,1.1569,1.1568,1.1567,0,0,1.1337,1.1372,1.1385,1.1403,1.1433,1.1463,1.1509,1.1548,1.1572,1.1599,1.164,1.1696,1.1681,1.1704,1.1705,1.1739,1.1808,1.1719,1.172,1.1737,1.1895,1.1909,1.1923,1.1802,1.1804,1.1806,1.1893,0,1.1413,1.149,1.149,1.1563,1.1601,1.1588,1.1629,1.1653,1.1664,1.17,1.1712,1.1753,1.1728,1.1743,1.1776,1.1792,1.184,1.1786,1.1843,1.1845,1.1838,1.1938,1.1952,1.2033,1.1905,1.1907,1.1908,0,1.1511,1.1541,1.1617,1.1644,1.166,1.1696,1.1733,1.1766,1.1795,1.1801,1.1828,1.1824,1.1874,1.184,1.1911,1.1875,1.1898,1.191,1.1913,1.192,1.1882,1.195,1.2059,1.2072,1.1926,1.1924,1.1923,0,1.1573,1.1633,1.1687,1.1702,1.1734,1.1761,1.1776,1.1803,1.1827,1.1861,1.1878,1.1917,1.194,1.1972,1.1981,1.1954,1.2054,1.2019,1.2063,1.2063,1.2085,1.2084,1.2203,1.2097,1.2097,1.2096,1.2096,0,1.1659,1.1707,1.1716,1.1749,1.1804,1.1805,1.186,1.1874,1.1899,1.1937,1.1929,1.1966,1.1974,1.2014,1.2021,1.2081,1.2091,1.2099,1.2101,1.2101,1.2101,1.2118,1.2114,1.21,1.2099,1.2098,1.2098,0,1.1738,1.1746,1.1804,1.1831,1.1839,1.1878,1.1902,1.1936,1.1946,1.1995,1.2007,1.2024,1.207,1.2082,1.2137,1.2142,1.2215,1.221,1.2204,1.2205,1.2249,1.2246,1.2384,1.2404,1.2283,1.2284,1.2285,0,1.1793,1.183,1.186,1.1884,1.19,1.194,1.1965,1.1969,1.1996,1.2033,1.2064,1.2109,1.2145,1.2221,1.224,1.2284,1.2282,1.2327,1.2288,1.2288,1.2286,1.2284,1.229,1.2335,1.2337,1.2338,1.2338,0,1.1891,1.1893,1.1928,1.1966,1.1996,1.2026,1.2055,1.2076,1.2084,1.2116,1.2162,1.219,1.2248,1.2294,1.2338,1.2357,1.2351,1.235,1.2363,1.2365,1.2361,1.2367,1.2227,1.2348,1.2347,1.2346,1.2346,1.2345,1.1962,1.1995,1.2022,1.2062,1.2084,1.2112,1.2146,1.216,1.2199,1.2244,1.2245,1.2297,1.2329,1.2387,1.2409,1.2452,1.2439,1.2457,1.2462,1.2467,1.2472,1.2353,1.246,1.246,1.246,1.2459,1.2459,0,1.2061,1.2078,1.2115,1.2156,1.2189,1.2177,1.221,1.2239,1.2284,1.2313,1.2349,1.2405,1.2451,1.2474,1.252,1.255,1.2549,1.2563,1.2562,1.2567,1.248,1.2465,1.2563,1.2563,1.2563,1.2563,1.2563,1.2563,1.2117,1.2173,1.218,1.2248,1.2266,1.2315,1.2335,1.2362,1.2386,1.2448,1.2485,1.2499,1.2527,1.2576,1.2619,1.2625,1.2644,1.266,1.2665,1.2583,1.2573,1.2563,1.2549,1.2663,1.2663,1.2748,1.2749,1.275]},{"header":{"parameterUnit":"m.s-1","parameterCategory":1,"la1":30.2991,"la2":30.254,"lo1":-89.0895,"lo2":-89.0444,"dy":0.0017,"dx":0.0017,"nx":28,"ny":28,"refTime":"2024-05-14T21:00:00:Z","depth":0,"parameterNumber":3,"parameterNumberName":"V-component_of_WINDS"},"data":[0,0,0,0,0,0,0,0,0,0,0,0,0,0,0,0,0,0,0,0,0,0,0,0,0,0,0,0,0,0,0,0,0,0,0,0,0,0,0,0,0,0,0,0,0,0,0,0,0,0,0,0,0,0,0,0,0,0,-0.9372,-0.9369,0,-0.9032,-0.9028,-0.9024,-0.8942,-0.8944,-0.8947,-0.8949,-0.8589,-0.8578,-0.8566,0,0,0,0,0,0,0,0,0,0,0,0,0,-0.994,-0.993,-0.9373,-0.9368,-0.9364,-0.9032,-0.9028,-0.9023,-0.8942,-0.8944,-0.8947,-0.895,-0.8593,-0.8579,-0.8565,0,0,0,0,0,0,0,0,0,0,0,0,0,-0.9655,-0.9926,-0.9373,-0.9284,-0.9272,-0.9033,-0.9027,-0.9022,-0.8941,-0.8944,-0.8948,-0.8951,-0.8597,-0.858,-0.8563,-0.8385,0,0,-0.8509,-0.8502,0,0,0,0,0,0,0,0,-0.9672,-0.9635,-0.9301,-0.929,-0.9276,-0.9033,-0.9095,-0.8808,-0.894,-0.9066,-0.8949,-0.8953,-0.8733,-0.8705,-0.8633,-0.8368,-0.8353,-0.8508,-0.8497,-0.8489,-0.8484,0,0,0,0,0,0,0,-0.9691,-0.9649,-0.9237,-0.9296,-0.9281,-0.9256,-0.922,-0.9041,-0.8884,-0.9056,-0.9049,-0.901,-0.8727,-0.865,-0.8624,-0.8348,-0.8508,-0.8493,-0.8482,-0.8475,-0.7914,-0.791,0,0,0,0,0,0,-0.9728,-0.9666,-0.9248,-0.9227,-0.9487,-0.9243,-0.9202,-0.9107,-0.8886,-0.8856,-0.9008,-0.9008,-0.8678,-0.8644,-0.8611,-0.8384,-0.849,-0.8473,-0.8463,-0.7919,-0.7913,-0.7909,0,0,0,0,0,0,-0.9741,-0.9692,-0.9262,-0.9444,-0.9388,-0.923,-0.9124,-0.9099,-0.9022,-0.885,-0.8821,-0.8959,-0.868,-0.8636,-0.8441,-0.8371,-0.8465,-0.8449,-0.7924,-0.7917,-0.7911,-0.7932,0,0,0,0,0,0,-0.9758,-0.9697,-0.9631,-0.9444,-0.9379,-0.9102,-0.912,-0.909,-0.8993,-0.899,-0.8796,-0.8767,-0.8679,-0.8468,-0.8424,-0.8348,-0.8435,-0.7929,-0.7921,-0.7913,-0.7937,-0.7927,-0.7919,0,0,0,0,0,-0.9778,-0.9649,-0.9628,-0.9578,-0.9294,-0.9099,-0.9061,-0.8965,-0.8988,-0.8918,-0.8807,-0.8773,-0.8387,-0.8449,-0.8399,-0.8316,-0.7933,-0.7923,-0.7914,-0.7941,-0.7929,-0.7919,0,0,0,0,0,0,-0.9829,-0.9623,-0.9598,-0.9406,-0.9271,-0.9085,-0.8994,-0.8956,-0.8809,-0.8812,-0.8696,-0.8653,-0.8465,-0.8371,-0.8445,-0.813,-0.816,-0.8139,-0.8198,-0.8185,-0.8176,-0.8201,-0.8421,0,0,0,0,0,-0.9819,-0.9682,-0.9508,-0.9355,-0.9289,-0.9153,-0.9065,-0.9003,-0.8857,-0.8798,-0.8673,-0.8529,-0.8374,-0.8275,-0.8124,-0.7924,-0.7877,-0.7842,-0.7833,-0.7827,-0.7809,-0.7691,-0.7672,-0.7877,-0.7877,-0.7877,0,0,-0.9795,-0.9665,-0.9585,-0.9362,-0.925,-0.9105,-0.9106,-0.8954,-0.8844,-0.8774,-0.8583,-0.8486,-0.8317,-0.8119,-0.8025,-0.8035,-0.7743,-0.7814,-0.781,-0.7796,-0.7679,-0.766,-0.7643,-0.787,-0.7871,-0.7872,0,0,-0.9676,-0.9567,-0.9425,-0.9314,-0.9145,-0.9056,-0.9022,-0.8841,-0.8775,-0.8582,-0.8525,-0.8391,-0.8129,-0.801,-0.7915,-0.7749,-0.771,-0.7703,-0.7654,-0.754,-0.7524,-0.7509,-0.7445,-0.7424,-0.7687,-0.7687,-0.7687,0,-0.9666,-0.9451,-0.9356,-0.9207,-0.9107,-0.9041,-0.8893,-0.8788,-0.8577,-0.8508,-0.8524,-0.819,-0.8073,-0.7843,-0.7802,-0.7729,-0.7682,-0.7723,-0.7535,-0.7519,-0.7503,-0.7441,-0.7418,-0.7687,-0.7687,-0.7687,-0.7687,0,-0.9444,-0.9295,-0.92,-0.9002,-0.8892,-0.8744,-0.8623,-0.8522,-0.847,-0.8377,-0.8178,-0.8035,-0.7851,-0.7793,-0.7739,-0.7553,-0.7564,-0.7559,-0.7586,-0.7486,-0.7425,-0.74,-0.7686,-0.7686,-0.7686,-0.7686,0,0,-0.9347,-0.9098,-0.9064,-0.8971,-0.878,-0.866,-0.8507,-0.8331,-0.8245,-0.8101,-0.7966,-0.7745,-0.7738,-0.763,-0.7562,-0.7463,-0.7335,-0.7469,-0.7463,-0.7445,-0.7116,-0.7118,-0.7093,-0.731,-0.7305,-0.7301,-0.7128,0,-0.9202,-0.8931,-0.884,-0.8612,-0.847,-0.8404,-0.8269,-0.8135,-0.8044,-0.7906,-0.7804,-0.7648,-0.7653,-0.7587,-0.7486,-0.7373,-0.7267,-0.7384,-0.7178,-0.7172,-0.7219,-0.7061,-0.7064,-0.6908,-0.7104,-0.71,-0.7097,0,-0.8996,-0.8852,-0.8611,-0.8434,-0.8371,-0.8253,-0.8081,-0.7953,-0.7797,-0.7737,-0.7617,-0.7556,-0.7388,-0.7427,-0.7191,-0.7273,-0.7183,-0.7114,-0.7106,-0.7079,-0.7126,-0.7027,-0.6856,-0.6831,-0.706,-0.7063,-0.7066,0,-0.8944,-0.8689,-0.8511,-0.8434,-0.8225,-0.8142,-0.805,-0.7898,-0.7797,-0.7646,-0.7578,-0.7409,-0.7315,-0.7183,-0.7076,-0.7115,-0.6847,-0.6879,-0.6788,-0.6791,-0.6732,-0.6736,-0.6541,-0.6682,-0.6682,-0.6682,-0.6683,0,-0.8788,-0.8642,-0.8485,-0.8375,-0.8208,-0.8103,-0.7939,-0.7843,-0.7707,-0.7573,-0.7505,-0.738,-0.7249,-0.7105,-0.702,-0.6834,-0.6794,-0.6737,-0.6715,-0.674,-0.6747,-0.6677,-0.6683,-0.6676,-0.6677,-0.6679,-0.668,0,-0.8701,-0.859,-0.8391,-0.821,-0.816,-0.8044,-0.7886,-0.7774,-0.7681,-0.7512,-0.7466,-0.7317,-0.7145,-0.7026,-0.6804,-0.6746,-0.6544,-0.6526,-0.6597,-0.6586,-0.65,-0.6508,-0.6249,-0.6207,-0.6381,-0.638,-0.6378,0,-0.8607,-0.8493,-0.83,-0.8208,-0.8116,-0.7968,-0.7864,-0.7756,-0.765,-0.7462,-0.7371,-0.7195,-0.7047,-0.6773,-0.6642,-0.647,-0.6445,-0.6366,-0.6418,-0.6446,-0.6438,-0.6444,-0.643,-0.6357,-0.6355,-0.6354,-0.6353,0,-0.8451,-0.8401,-0.8257,-0.8092,-0.7971,-0.7835,-0.7698,-0.7625,-0.7491,-0.7375,-0.7199,-0.7085,-0.6858,-0.6681,-0.6497,-0.6397,-0.635,-0.6339,-0.6307,-0.633,-0.6374,-0.6344,-0.657,-0.6344,-0.6345,-0.6346,-0.6346,-0.6346,-0.8353,-0.8248,-0.8095,-0.7935,-0.7821,-0.7694,-0.7579,-0.7472,-0.7324,-0.7133,-0.7078,-0.6893,-0.6735,-0.6483,-0.6381,-0.6231,-0.6237,-0.6194,-0.6181,-0.6171,-0.6169,-0.6402,-0.6198,-0.6198,-0.6198,-0.6198,-0.6198,0,-0.8189,-0.8088,-0.7942,-0.7754,-0.7626,-0.7599,-0.7445,-0.7339,-0.7179,-0.7038,-0.6894,-0.6689,-0.6517,-0.6373,-0.6194,-0.6102,-0.6075,-0.6058,-0.6061,-0.6037,-0.6176,-0.6219,-0.6082,-0.6082,-0.6082,-0.6082,-0.6082,-0.6082,-0.8089,-0.7907,-0.784,-0.7599,-0.7497,-0.7318,-0.7232,-0.7113,-0.6999,-0.6775,-0.6633,-0.6542,-0.6397,-0.6206,-0.6045,-0.6007,-0.5941,-0.5928,-0.5884,-0.6015,-0.6028,-0.6041,-0.608,-0.5916,-0.5916,-0.5756,-0.5755,-0.5754]}]]